Universal City, TX

12:54 AM CST on February 13, 2016 (GMT -0600)
Randolph Air Force Base

Weather History for KRND - August, 2012

Change the Weather History Date:

Thursday, August 2, 2012

  Actual Average (KSAT) Record (KSAT)
Temperature  
Mean Temperature 86 °F 86 °F  
Max Temperature 101 °F 96 °F 103 °F (2011)
Min Temperature 72 °F 75 °F 63 °F (1925)
Degree Days  
Heating Degree Days 0 0  
Month to date heating degree days 0  
Since 1 June heating degree days 0  
Since 1 July heating degree days 0  
Cooling Degree Days 21 21  
Month to date cooling degree days 42  
Year to date cooling degree days 1802  
Since 1 June cooling degree days 1173  
Growing Degree Days 36 (Base 50)    
Moisture  
Dew Point 69 °F    
Average Humidity 65    
Maximum Humidity 98    
Minimum Humidity 29    
Precipitation  
Precipitation 0.00 in 0.05 in 1.47 in (1971)
Month to date precipitation 0.09  
Year to date precipitation 18.94  
Snow  
Snow 0.00 in - - ()
Month to date snowfall  
Since 1 June snowfall  
Since 1 July snowfall  
Snow Depth -    
Sea Level Pressure  
Sea Level Pressure 29.87 in    
Wind  
Wind Speed 7 mph (South)    
Max Wind Speed 16 mph    
Max Gust Speed 21 mph    
Visibility 10 miles    
Events      
T = Trace of Precipitation, MM = Missing Value Source: NWS Daily Summary

Daily Weather History Graph

Daily Weather History Graph

Search for Another Location

Airport or City:

Trip Planner

Search our weather history database for the weather conditions in past years. The results will help you decide how hot, cold, wet, or windy it might be!

Date:

Astronomy

Aug. 02, 2012 Rise Set
Actual Time 6:53 AM CDT 8:24 PM CDT
Civil Twilight 6:28 AM CDT 8:50 PM CDT
Nautical Twilight 5:57 AM CDT 9:20 PM CDT
Astronomical Twilight 5:25 AM CDT 9:52 PM CDT
Moon 8:41 PM CDT (8/2) 7:25 AM CDT (8/2)
Length of Visible Light 14h 21m
Length of Day
13h 30m
Full, 100% of the Moon is Illuminated
Aug 2
Full
Aug 9
Last Quarter
Aug 17
New
Aug 24
First Quarter
Aug 31
Full

Hourly Weather History & Observations

Time (CDT) Temp. Heat Index Dew Point Humidity Pressure Visibility Wind Dir Wind Speed Gust Speed Precip Events Conditions
12:55 AM 73.6 °F - 66.6 °F 79% 29.91 in 10.0 mi SSE 6.9 mph - N/A   Clear
1:55 AM 74.7 °F - 68.2 °F 80% 29.91 in 10.0 mi SSE 3.5 mph - N/A   Clear
2:55 AM 72.5 °F - 68.9 °F 88% 29.89 in 10.0 mi SSE 4.6 mph - N/A   Clear
3:55 AM 72.3 °F - 70.5 °F 94% 29.89 in 10.0 mi SSE 3.5 mph - N/A   Clear
4:55 AM 72.9 °F - 72.3 °F 98% 29.88 in 10.0 mi SSW 5.8 mph - N/A   Clear
5:55 AM 74.5 °F - 73.2 °F 96% 29.89 in 10.0 mi SSW 5.8 mph - N/A   Clear
6:55 AM 75.4 °F - 73.9 °F 95% 29.90 in 10.0 mi SSW 8.1 mph - N/A   Mostly Cloudy
7:55 AM 76.5 °F - 74.3 °F 93% 29.91 in 10.0 mi SSW 8.1 mph - N/A   Mostly Cloudy
8:20 AM 77.0 °F - 75.2 °F 94% 29.91 in 10.0 mi SW 4.6 mph - N/A   Scattered Clouds
8:42 AM 77.0 °F - 75.2 °F 94% 29.94 in 10.0 mi SSW 5.8 mph - N/A   Mostly Cloudy
8:55 AM 78.3 °F - 74.7 °F 89% 29.92 in 10.0 mi SW 5.8 mph - N/A   Scattered Clouds
9:55 AM 83.1 °F 89.5 °F 73.6 °F 73% 29.91 in 10.0 mi SSW 10.4 mph - N/A   Partly Cloudy
10:55 AM 86.9 °F 92.9 °F 71.4 °F 60% 29.91 in 10.0 mi South 9.2 mph - N/A   Clear
11:55 AM 90.0 °F 95.0 °F 69.6 °F 51% 29.91 in 10.0 mi SSW 6.9 mph - N/A   Clear
12:55 PM 93.4 °F 95.6 °F 65.3 °F 39% 29.89 in 10.0 mi South 6.9 mph - N/A   Clear
1:55 PM 96.6 °F 98.7 °F 63.9 °F 34% 29.87 in 10.0 mi South 9.2 mph 16.1 mph N/A   Scattered Clouds
2:55 PM 99.3 °F 101.2 °F 62.6 °F 30% 29.85 in 10.0 mi South 10.4 mph - N/A   Clear
3:55 PM 100.0 °F 101.8 °F 62.2 °F 29% 29.82 in 10.0 mi SSE 13.8 mph 20.7 mph N/A   Clear
4:55 PM 100.4 °F 103.0 °F 63.5 °F 30% 29.81 in 10.0 mi SE 9.2 mph 18.4 mph N/A   Clear
5:55 PM 99.9 °F 101.5 °F 62.6 °F 29% 29.80 in 10.0 mi SSE 10.4 mph - N/A   Clear
6:55 PM 98.1 °F 100.7 °F 64.4 °F 33% 29.79 in 10.0 mi SE 12.7 mph - N/A   Clear
7:55 PM 93.4 °F 97.0 °F 66.9 °F 42% 29.80 in 10.0 mi SE 16.1 mph - N/A   Clear
8:55 PM 88.7 °F 93.0 °F 68.9 °F 52% 29.81 in 10.0 mi SE 16.1 mph - N/A   Clear
9:55 PM 85.5 °F 89.8 °F 69.8 °F 59% 29.83 in 10.0 mi SSE 13.8 mph - N/A   Clear
10:55 PM 82.6 °F 85.7 °F 68.4 °F 62% 29.84 in 10.0 mi SSE 10.4 mph - N/A   Clear
11:55 PM 79.3 °F - 67.6 °F 67% 29.86 in 10.0 mi SSE 6.9 mph - N/A   Clear